Location: Hamayl? Da??
(36.7028°N, 30.1716°E)
Time: 07:35:18
(UTC+00:00)

Cosmos 1980 Rocket - Pass Details

Date: 04 August 2024
Orbit: 830 x 848 km, 71.0° (Epoch: 11 September)

Event Time Altitude Azimuth Distance (km) Brightness Sun altitude
Exits shadow 22:14:43 35° 350° (N) 1,342 3.6 -36.3°
Drops below altitude 10° 22:18:10 10° 12° (NNE) 2,469 5.4 -36.3°
Sets 22:20:41 0° 17° (NNE) 3,404 6.3 -36.3°
